CALDNA-WX Weather Reports


time (UTC)temp
C
wind
direction
speed
KPH
gust
KPH
rain 1hr
cm
rain 24hr
cm
rain mn
cm
humidity
%
barometer
mb
20260505181524 12 272 24.1 0.0 0.00 0.00 0.00 37 981.2
20260505180051 12 270 24.1 0.0 0.00 0.00 0.00 37 981.2
20260505174523 12 272 24.1 0.0 0.00 0.00 0.00 34 980.4
20260505173039 12 273 22.5 0.0 0.00 0.00 0.00 34 979.6
20260505171524 12 272 22.5 0.0 0.00 0.00 0.00 34 979.6
20260505170049 12 276 22.5 0.0 0.00 0.00 0.00 34 979.6
20260505164524 12 280 22.5 0.0 0.00 0.00 0.00 34 980.4
20260505163042 12 278 22.5 0.0 0.00 0.00 0.00 36 978.6
20260505161524 12 274 20.9 0.0 0.00 0.00 0.00 36 978.6
20260505153045 11 269 22.5 0.0 0.00 0.00 0.00 35 979.5
20260505151524 11 274 22.5 0.0 0.00 0.00 0.00 35 979.4
20260505124523 11 298 19.3 0.0 0.00 0.00 0.00 65 978.7
20260505123043 11 296 11.3 0.0 0.00 0.00 0.00 62 977.0
20260505121523 10 318 9.7 0.0 0.00 0.00 0.00 62 977.0
20260505120056 10 315 11.3 0.0 0.00 0.00 0.00 62 977.0
20260505114524 10 303 14.5 0.0 0.00 0.00 0.00 61 977.0
20260505113041 10 317 16.1 0.0 0.00 0.00 0.00 62 975.4
20260505111523 10 333 14.5 0.0 0.00 0.00 0.00 62 975.4
20260505101523 10 279 17.7 0.0 0.00 0.00 0.00 51 973.9
20260505100053 11 275 17.7 0.0 0.00 0.00 0.00 51 973.9
20260505094523 11 268 16.1 0.0 0.00 0.00 0.00 48 974.1
20260505093045 11 270 14.5 0.0 0.00 0.00 0.00 50 973.8
20260505091523 11 258 14.5 0.0 0.00 0.00 0.00 50 973.8
20260505090056 11 256 14.5 0.0 0.00 0.00 0.00 50 973.8
20260505084521 12 271 16.1 0.0 0.00 0.00 0.00 59 974.1
20260505083041 12 274 14.5 0.0 0.00 0.00 0.00 71 973.4
20260505081523 11 259 12.9 0.0 0.00 0.00 0.00 71 973.4
20260505080050 11 245 12.9 0.0 0.00 0.00 0.00 48 973.6
20260505074523 12 247 16.1 0.0 0.00 0.00 0.00 74 972.9
20260505073044 12 247 16.1 0.0 0.00 0.00 0.00 74 972.9
20260505071524 13 246 19.3 0.0 0.00 0.00 0.00 74 972.9
20260505070051 13 224 17.7 0.0 0.00 0.00 0.00 74 972.9
20260505064523 13 239 14.5 0.0 0.00 0.00 0.00 67 973.3
20260505063040 13 241 17.7 0.0 0.00 0.00 0.00 76 972.7
20260505061524 13 236 17.7 0.0 0.00 0.00 0.00 76 972.7
20260505060056 13 234 19.3 0.0 0.00 0.00 0.00 76 972.7
20260505054524 14 236 20.9 0.0 0.00 0.00 0.00 72 974.0
20260505053046 14 248 19.3 0.0 0.00 0.00 0.00 63 972.5
20260505051523 15 248 22.5 0.0 0.00 0.00 0.00 63 972.6
20260505041523 16 216 17.7 0.0 0.00 0.00 0.00 59 972.4
20260505040053 17 250 16.1 0.0 0.00 0.00 0.00 59 972.4
20260505034520 17 244 24.1 0.0 0.00 0.00 0.00 58 972.2
20260505033043 16 215 25.7 0.0 0.00 0.00 0.00 62 972.2
20260505031523 16 206 25.7 0.0 0.00 0.00 0.00 62 972.2
20260505030051 16 204 27.4 0.0 0.00 0.00 0.00 62 972.2
20260505024523 17 202 30.6 0.0 0.00 0.00 0.00 54 972.5
20260505023044 17 207 33.8 0.0 0.00 0.00 0.00 59 972.5
20260505021522 17 208 35.4 0.0 0.00 0.00 0.00 59 972.4
20260505020051 17 209 30.6 0.0 0.00 0.00 0.00 59 972.4
20260505014523 17 211 32.2 0.0 0.00 0.00 0.00 58 971.5
20260505013041 17 209 30.6 0.0 0.00 0.00 0.00 58 971.5
20260505011524 17 209 30.6 0.0 0.00 0.00 0.00 58 971.5
20260505010047 18 207 30.6 0.0 0.00 0.00 0.00 58 971.5
20260505004523 18 209 25.7 0.0 0.00 0.00 0.00 43 972.1
20260505003040 19 199 12.9 0.0 0.00 0.00 0.00 41 972.8
20260505001522 19 206 11.3 0.0 0.00 0.00 0.00 41 972.7
20260505000050 20 210 11.3 0.0 0.00 0.00 0.00 41 972.7
20260504234522 20 220 14.5 0.0 0.00 0.00 0.00 35 972.9
20260504233040 21 227 17.7 0.0 0.00 0.00 0.00 35 972.6
20260504231522 21 233 17.7 0.0 0.00 0.00 0.00 35 972.6
20260504230047 21 239 20.9 0.0 0.00 0.00 0.00 35 972.6
20260504224522 22 243 24.1 0.0 0.00 0.00 0.00 35 972.6
20260504223043 22 249 27.4 0.0 0.00 0.00 0.00 37 972.9
20260504221522 22 247 29.0 0.0 0.00 0.00 0.00 37 972.9
20260504220053 22 245 29.0 0.0 0.00 0.00 0.00 37 972.9
20260504214521 22 243 30.6 0.0 0.00 0.00 0.00 35 973.8
20260504213043 22 234 30.6 0.0 0.00 0.00 0.00 35 973.8
20260504211521 22 236 30.6 0.0 0.00 0.00 0.00 31 972.8
20260504210050 22 234 33.8 0.0 0.00 0.00 0.00 31 972.8
20260504204526 22 237 32.2 0.0 0.00 0.00 0.00 33 973.6
20260504203037 22 235 33.8 0.0 0.00 0.00 0.00 33 973.6
20260504201527 22 236 32.2 0.0 0.00 0.00 0.00 33 973.6
20260504200048 22 235 33.8 0.0 0.00 0.00 0.00 38 972.9
20260504194527 22 235 35.4 0.0 0.00 0.00 0.00 32 973.6
20260504193046 22 230 33.8 0.0 0.00 0.00 0.00 32 973.6
20260504191527 22 230 33.8 0.0 0.00 0.00 0.00 32 973.6
20260504190052 22 225 33.8 0.0 0.00 0.00 0.00 32 973.6
20260504184523 23 223 29.0 0.0 0.00 0.00 0.00 23 974.8
20260504183047 22 225 29.0 0.0 0.00 0.00 0.00 24 974.5
20260504181527 22 227 29.0 0.0 0.00 0.00 0.00 24 974.5